Voltar ao catálogo

STARLINK-34466

AtivoComunicaçõesVLEO
NORAD 66226·PAYLOAD·🇺🇸 United States

Lançado Oct 28, 2025 de Vandenberg Space Force Base

Loading…

Próximas Passagens (próximas 24 horas)

TLE

AtualizadoSource: CelesTrak SupGP

Época: Sep 15, 2026, 04:06 UTC

1 66226C 25244W   26258.17131944 -.00018540  00000+0 -54784-3 0  2580
2 66226  53.1588  66.3885 0001049  85.2026  67.4320 15.34396501    17

Acompanhe STARLINK-34466 em tempo real com AllMySat

Download on the App Store